Location: Newark
(39.6867°N, 100.6772°W)
Time: 21:06:37
(UTC+00:00)

Explorer 11/Cluster Stage 4 - Pass Details

Date: 25 October 2019
Orbit: 467 x 1259 km, 28.8° (Epoch: 19 November)

Event Time Altitude Azimuth Distance (km) Brightness Sun altitude
Rises 16:21:45 0° 247° (WSW) 2,533 9.1 30.6°
Reaches altitude 10° 16:24:54 10° 218° (SW) 1,612 8.5 30.9°
Maximum altitude 16:26:40 13° 189° (S) 1,421 8.7 31.1°
Drops below altitude 10° 16:28:27 10° 159° (SSE) 1,613 9.6 31.3°
Sets 16:31:36 0° 130° (SE) 2,538 10.2 31.6°
